Location: Roland
(31.1349°N, 85.4372°W)
Time: 03:57:50
(UTC+00:00)

Courier 1B - Pass Details

Date: 28 April 2021
Orbit: 962 x 1209 km, 28.3° (Epoch: 07 May)

Event Time Altitude Azimuth Distance (km) Brightness Sun altitude
Rises 13:33:30 0° 229° (SW) 4,050 10.3 31.6°
Reaches altitude 10° 13:36:38 10° 221° (SW) 3,060 9.9 32.3°
Maximum altitude 13:43:22 36° 158° (SSE) 1,707 9.4 33.8°
Drops below altitude 10° 13:49:46 10° 95° (E) 2,905 11.4 35.1°
Sets 13:52:39 0° 87° (E) 3,822 11.6 35.7°
